FLOCK 4S-4 (47491 NORAD) Tracking and Keplerian Element Data
This shows tracking and keplerian element data for the satellite.
Feedback or suggestion? Click here.
Element | Value |
Catalog | 47491 |
Name | FLOCK 4S-4 |
Epoch Orbit | 1256 |
Epoch Day | 105.71393353 |
Epoch Year | 2021 |
RAAN | 167.9658 |
Inclination | 97.4913 |
Eccentricity | 0.0009245 |
Argument of Perigee | 323.5193 |
Mean Anonmoly | 36.5407 |
Mean Motion | 15.12503829 |
Decay Rate | 1.225E-05 |
L1 | 1 47491U 21006CG 21105.71393353 .00001225 00000-0 74023-4 0 9997 |
L2 | 2 47491 97.4913 167.9658 0009245 323.5193 36.5407 15.12503829 12563 |
Live tracking and technical data element details for FLOCK 4S-4 (NORAD 47491). FLOCK 4S-4 can be tracked NOW for your location showing map with azimuth and elevation plus other details from your city location.
Track the satellite on the map from your city or location and see movement details for azimuth, elevation, latitude, longitude, range, height, and movement on the map or in text.
IsCatalogInMostPopularTable: catalog: 47491, numindb: 17
Update: records affected: 1
GetName: 47491 FLOCK 4S-4
Hit Count: updated at: Fri, 16 Apr 2021 11:40:48 GMT